N5GAH-13 Weather Reports


Display with metric or nautical units.
time (UTC)temp
F
wind
direction
speed
MPH
gust
MPH
rain 1hr
in
rain 24hr
in
rain mn
in
humidity
%
barometer
mb
20260504002330 75 215 8.0 16.0 0.00 0.10 0.09 37 1019.2
20260503235330 76 220 7.0 15.0 0.00 0.10 0.09 38 1019.6
20260503222330 78 226 9.0 16.0 0.00 0.10 0.08 35 1020.4
20260503215330 79 210 9.0 19.0 0.00 0.10 0.08 35 1020.7
20260503212331 79 210 9.0 18.0 0.00 0.10 0.08 34 1021.2
20260503205330 77 214 7.0 15.0 0.00 0.10 0.08 37 1021.7
20260503202330 77 191 6.0 16.0 0.00 0.10 0.07 37 1022.5
20260503195330 78 195 7.0 14.0 0.00 0.10 0.07 37 1022.8
20260503192330 77 197 7.0 13.0 0.00 0.10 0.07 37 1023.4
20260503185331 76 203 8.0 18.0 0.00 0.10 0.07 39 1023.7
20260503182330 75 197 7.0 14.0 0.00 0.10 0.06 40 1024.4
20260503175330 75 198 7.0 15.0 0.00 0.10 0.06 41 1025.2
20260503172330 74 198 8.0 14.0 0.00 0.10 0.06 43 1025.7
20260503072329 54 213 4.0 7.0 0.00 0.20 0.01 74 1026.5
20260503052329 55 208 3.0 5.0 0.00 0.20 0.00 70 1026.8
20260503045329 56 203 3.0 5.0 0.00 0.20 0.21 69 1026.9
20260503042329 56 199 3.0 5.0 0.00 0.20 0.21 69 1026.7
20260503025330 60 146 3.0 7.0 0.00 0.20 0.20 61 1026.3
20260503022330 61 142 3.0 5.0 0.00 0.20 0.20 57 1026.1
20260503015330 63 145 2.0 5.0 0.00 0.20 0.20 52 1026.0
20260503005330 65 215 3.0 5.0 0.00 0.20 0.19 47 1025.7